Lid_Strength_Index
-0 -1 -1 -1 -1 -1 -1 -1 -0 -0 -0 -0 -1 -1 -1 -1 -1 1 4 2 2 -0 1 5 5 6 6 7 7 8 12 14 13 12 11 10 10 9 8 8 8 7 6 5 4
-1 -1 -1 -1 -1 -1 -1 -0 -0 -0 -1 -1 -1 -1 -1 -1 2 4 -0 -2 -1 -0 5 6 8 7 9 9 8 10 13 12 12 12 11 10 9 9 10 10 10 8 6 4 3
0 -1 -1 -1 -1 -1 -1 -0 -1 -1 -1 -1 -1 -1 -1 -0 4 4 -1 -2 -1 1 4 6 6 7 9 9 10 11 12 11 10 9 9 10 10 9 10 11 9 8 6 6 5
-0 -1 -1 -1 -1 -1 -1 -1 -1 -1 -1 -1 -1 -1 -1 2 11 3 -1 -1 -1 3 5 6 7 9 11 11 10 13 11 10 9 9 9 10 9 10 10 9 8 8 6 5 5
0 -0 -1 -1 -1 -1 -1 -1 -1 -1 -1 -1 -1 -1 2 6 6 2 -1 0 3 4 6 7 9 9 11 11 10 12 11 10 9 10 10 9 11 11 10 9 9 7 6 5 5
1 0 0 -1 -1 -1 -1 -1 -1 -1 -1 -1 -1 -1 5 9 3 2 3 3 4 5 6 7 8 8 10 10 11 10 10 10 9 10 10 11 11 11 10 9 9 8 7 6 5
0 1 0 0 -1 -1 -1 -1 -1 -1 -1 -1 -1 0 6 7 3 3 4 5 5 5 6 6 7 9 9 10 9 10 12 11 10 10 10 10 12 11 10 10 10 9 9 8 6
0 1 0 0 -0 -0 -1 -1 -1 -1 -1 -1 -1 3 8 3 3 4 4 5 5 5 5 6 6 7 8 9 10 12 13 15 12 10 10 11 15 11 9 10 10 10 11 9 8
0 1 0 0 0 0 -1 -1 -1 -1 -1 -1 3 5 8 2 4 4 5 5 5 5 6 4 6 9 9 12 14 13 16 15 13 10 11 12 14 10 9 10 11 11 10 10 9
1 1 1 1 -0 0 -1 -1 -1 -0 -0 0 2 8 7 7 4 4 5 5 6 7 7 8 9 12 13 15 18 16 16 15 15 12 12 13 13 11 10 10 10 10 10 10 9
0 1 1 1 -0 -1 -0 2 5 6 4 7 7 8 6 4 3 5 5 6 6 9 12 10 13 15 13 13 13 14 15 16 14 11 13 13 13 12 11 11 12 12 11 11 10
0 1 1 0 0 -0 0 5 4 3 8 4 4 5 4 4 7 6 5 8 9 12 11 12 14 11 11 11 12 13 15 15 14 12 13 14 13 12 11 11 10 10 11 11 11
1 1 1 0 -0 0 2 3 2 2 8 7 4 5 5 5 7 7 6 8 10 11 12 13 12 9 10 12 12 14 15 15 15 14 14 14 16 14 12 11 10 10 10 10 10
1 1 0 0 2 1 4 1 2 2 13 10 8 6 5 5 8 5 6 8 10 11 11 12 10 11 12 12 12 15 13 13 13 15 18 14 20 15 12 12 11 10 10 11 10
3 2 0 -0 2 4 2 1 1 4 20 9 8 4 5 7 7 7 6 8 11 11 11 13 12 12 13 12 11 13 12 13 13 15 16 16 18 17 15 13 12 11 10 10 9
4 4 3 1 2 2 1 1 3 13 19 12 8 9 9 8 8 7 7 7 8 10 11 12 10 11 11 11 11 10 12 12 13 15 19 17 17 18 16 13 12 12 10 9 10
5 4 5 3 4 1 1 4 13 17 11 13 12 10 10 10 11 10 10 10 12 14 14 12 12 11 10 12 11 12 14 18 18 19 20 16 17 16 13 11 11 10 10 10 10
5 5 5 4 2 3 4 9 17 14 13 9 10 10 12 11 12 12 13 13 10 12 13 15 16 12 10 11 13 13 14 17 21 21 19 16 18 14 11 10 10 9 10 10 10
5 6 5 4 3 3 7 15 15 13 10 11 11 13 13 11 12 12 13 13 11 11 14 14 14 11 10 10 10 13 14 12 16 20 19 17 15 12 10 10 9 10 10 10 9
8 7 7 3 2 5 11 14 13 10 9 10 14 12 15 13 13 12 13 11 11 10 10 11 15 11 11 10 10 12 10 14 15 21 21 18 18 15 12 11 10 10 10 10 10
8 10 6 3 3 8 13 13 12 9 8 11 12 13 12 13 12 13 12 10 10 10 9 10 13 15 12 12 12 12 13 12 12 14 18 20 17 12 10 10 11 10 10 11 11
10 13 7 3 10 10 13 11 9 9 8 10 11 13 12 11 12 12 13 11 10 10 11 10 12 17 14 11 10 11 12 12 16 17 15 16 16 10 10 10 10 10 10 10 11
12 12 7 5 13 12 11 11 11 10 10 11 11 11 11 12 14 12 11 10 9 9 11 10 14 17 16 13 12 14 12 11 12 14 17 18 17 10 11 11 10 10 10 10 10
11 14 11 9 9 11 12 12 13 10 10 9 10 10 11 13 11 13 12 9 8 8 8 9 13 15 17 16 13 15 13 12 13 16 17 16 15 12 11 11 10 11 10 10 10
10 13 11 15 12 11 10 11 12 14 11 9 11 10 11 13 12 13 11 10 9 9 9 10 15 14 13 13 13 13 14 13 14 14 16 15 14 12 10 10 11 11 10 10 10
11 13 11 12 11 11 11 12 12 12 12 12 12 10 10 13 12 13 11 11 12 10 10 11 15 14 16 13 14 15 14 13 13 13 13 13 13 10 10 12 12 11 11 12 12
7 8 11 12 12 11 12 11 11 9 11 10 10 11 11 11 10 11 9 9 9 11 11 13 15 17 18 15 16 21 16 14 14 13 12 15 12 11 14 13 12 12 12 12 12